Regional Weather Roundup
Issued by NWS

Home | Current Version | Previous Version | Text Only | Print | Product List | Glossary On
Versions: 1 2 3 4 5 6 7 8 9 10 11 12 13 14 15 16 17 18 19 20 21 22 23 24 25 26 27 28 29 30 31 32 33 34 35 36 37 38 39 40 41 42 43 44 45 46 47 48 49 50
000
ASUS44 KFWD 240415
RWRTX
NORTH TEXAS HOURLY WEATHER ROUNDUP
NATIONAL WEATHER SERVICE FORT WORTH TX
1000 PM CST THU NOV 23 2017

NOTE: "FAIR" INDICATES FEW OR NO CLOUDS BELOW 12,000 FEET WITH NO
SIGNIFICANT WEATHER AND/OR OBSTRUCTIONS TO VISIBILITY.

TXZ118-119-240500-
DALLAS/FORT WORTH METROPLEX

CITY           SKY/WX    TMP DP  RH WIND       PRES   REMARKS
DFW AIRPORT    PTCLDY    55  31  39 S6        30.03S
DALLAS LOVE    PTCLDY    55  31  39 S8        30.05S
FTW MEACHAM    CLEAR     55  32  41 S6        30.04S
DAL-EXECUTIVE  CLEAR     54  30  40 S6        30.05S
FTW-ALLIANCE   PTCLDY    54  32  43 SW3       30.03S
FTW-NAS-JRB    CLEAR     54  32  43 S7        30.05S
FTW-SPINKS     CLEAR     53  30  41 S5        30.06S
ARLINGTON      CLEAR     48  32  53 S3        30.05S
GRAND PRAIRIE  CLEAR     54  30  39 S5        30.07R
ADDISON        CLEAR     52  31  45 S7        30.06S
MESQUITE       CLEAR     49  32  52 S5        30.06S
LANCASTER      CLEAR     48  30  50 CALM      30.07R
$$

TXZ091>094-102>105-117-120-121-131>134-240500-
NORTH CENTRAL TEXAS

CITY           SKY/WX    TMP DP  RH WIND       PRES   REMARKS
SHRMAN/DENISON CLEAR     51  31  45 S9        30.05S
GAINESVILLE    CLEAR     50  32  50 S3        30.05F
BOWIE          CLEAR     48  32  53 SE3       30.03S
BRIDGEPORT     CLEAR     55  32  42 CALM      30.05S
DECATUR        CLEAR     56  31  38 S9        30.02F
DENTON         CLEAR     49  33  54 SE5       30.04S
MCKINNEY       CLEAR     48  35  60 CALM      30.05S
BONHAM         CLEAR     48  30  50 S3        30.05S
GREENVILLE     CLEAR     45  37  76 CALM      30.06S
ROCKWALL       CLEAR     51  32  47 S5        30.06R
TERRELL        CLEAR     48  31  51 CALM      30.07R
WAXAHACHIE     CLEAR     47  32  55 CALM      30.07S
CLEBURNE       CLEAR     52  32  46 S7        30.07S
GRANBURY       CLEAR     55  34  46 CALM      30.06S
$$

TXZ083>090-098>101-113>116-127>130-139>142-154-155-240500-
WESTERN NORTH TEXAS

CITY           SKY/WX    TMP DP  RH WIND       PRES   REMARKS
WICHITA FALLS  CLEAR     51  34  52 S5        29.99F
WF-KICKAPOO    CLEAR     50  36  57 SE10      30.03S
VERNON         CLOUDY    53  30  41 S3        30.00F
ABILENE        CLEAR     52  35  52 S9        30.04F
ABILENE-DYESS  CLEAR     46  36  68 SW7       30.03F
GRAHAM           N/A     55  33  44 CALM      30.01S
BRECKENRIDGE   CLEAR     55  32  41 S8        30.03S
CISCO          CLEAR     54  34  47 S7        30.05F
EASTLAND       CLEAR     43  32  64 CALM      30.04F
RANGER         CLEAR     54  33  45 SW7       30.04F
MINERAL WELLS  CLEAR     51  33  50 SE10      30.02F
STEPHENVILLE   CLEAR     51  33  50 S3        30.08S
COMANCHE       CLEAR     53  34  48 S7        30.06S
BROWNWOOD      CLEAR     45  30  57 CALM      30.07S
COLEMAN        CLEAR     49  34  55 SW5       30.06F
$$

TXZ143>147-156>162-174-175-240500-
CENTRAL TEXAS

CITY           SKY/WX    TMP DP  RH WIND       PRES   REMARKS
WACO           CLEAR     48  37  65 S8        30.06F
WACO-TSTC      CLEAR     48  32  53 SE3       30.07F
WACO-MCGREGOR  CLEAR     49  31  49 S5        30.07F
HILLSBORO      CLEAR     52  32  46 SE7       30.06S
CORSICANA      CLEAR     49  36  61 S6        30.08S
MEXIA          PTCLDY    50  31  47 S3        30.07F
HEARNE         CLEAR     44  38  82 CALM      30.10S
CAMERON        CLEAR     51  33  49 S5        30.09S
TEMPLE         CLEAR     49  32  52 S9        30.08F
KILLEEN        CLEAR     52  30  42 S8        30.06F
KILLEEN-SKYLRK CLEAR     50  32  50 S7        30.08F
FORT HOOD      CLEAR     52  31  44 S5        30.04F
GATESVILLE     CLEAR     55  30  38 S6        30.08F
HAMILTON       CLEAR     49  35  60 S7        30.07S
LAMPASAS       CLEAR     50  35  55 CALM      30.07S
$$

TXZ095>097-106>112-122>126-135>138-148>153-164>167-240500-
EAST TEXAS

CITY           SKY/WX    TMP DP  RH WIND       PRES   REMARKS
PARIS          CLEAR     47  30  51 S5        30.06S
SULPHUR SPRNGS CLEAR     47  33  59 S3        30.08F
MOUNT PLEASANT CLEAR     42  36  79 CALM      30.09R
GILMER         CLEAR     42  36  79 CALM      30.07S
MINEOLA        CLEAR     41  36  81 E5        30.07S WCI  38
TYLER          CLEAR     44  37  76 S6        30.07F
LONGVIEW       CLEAR     43  40  89 S5        30.06F
MARSHALL       CLEAR     37  35  89 CALM      30.09F
ATHENS         CLEAR     37  32  81 CALM      30.07S
PALESTINE      CLEAR     42  38  84 CALM      30.09F FOG
JACKSONVILLE   CLEAR     50  34  54 S3        30.09F
HENDERSON      CLEAR     39  36  91 CALM      30.09F
CENTER         CLEAR     38  35  89 CALM      30.10S
NACOGDOCHES    CLEAR     40  37  89 CALM      30.10S
LUFKIN         CLEAR     42  39  89 CALM      30.09S
$$

SUPPLEMENTAL OBSERVATIONS (NWS FORT WORTH AREA)

CITY           SKY/WX    TMP DP  RH WIND       PRES   REMARKS
DENISON DAM      N/A     54  32  43 SE5         N/A
CADDO GRASSLND   N/A     45  32  61 S3          N/A
PAT MAYSE LAKE   N/A     52  30  43 SE3         N/A
GREENVILLE       N/A     48  32  53 S3          N/A
CEDAR HILL       N/A     55  28  35 S5          N/A
LBJ GRASSLAND    N/A     55  32  41 SE6         N/A
POSSUM KINGDOM   N/A     57  32  38 S9          N/A
GRANBURY         N/A     54  32  43 SE3         N/A
COMANCHE         N/A     54  32  43 S7          N/A
MCGREGOR         N/A     46  30  53 SW3         N/A
TEMPLE           N/A     52  30  43 S2          N/A
LAKE LIMESTONE   N/A     48  34  57 S1          N/A
ATHENS           N/A     43  39  87 CALM        N/A
$$

SUPPLEMENTAL OBSERVATIONS (NWS NORMAN AREA)

CITY           SKY/WX    TMP DP  RH WIND       PRES   REMARKS
GOODLETT         N/A     54  33  44 S6        29.99S
ODELL            N/A     56  35  46 SE12      30.00F
CROWELL          N/A     54  33  45 SW7       30.01S
KNOX CITY        N/A     51  32  48 S6        30.02S
SEYMOUR          N/A     51  34  51 SE5       30.01F
MILLERS CREEK    N/A     54  32  43 SW3         N/A
$$

SUPPLEMENTAL OBSERVATIONS (NWS SAN ANGELO AREA)

CITY           SKY/WX    TMP DP  RH WIND       PRES   REMARKS
WEINERT          N/A     55  33  43 S10       30.02S
HASKELL          N/A     56  30  36 S7        30.02S
THROCKMORTON     N/A     57  34  41 S8        30.02F
STAMFORD         N/A     49  35  56 S7        30.03F
CLYDE            N/A     55  34  44 S9        30.06S
HAMBY            N/A     54  32  43 S6          N/A
IVIE RESERVOIR   N/A     50  32  50 S2          N/A
COLORADO BEND    N/A     54  30  40 S6          N/A
$$

SUPPLEMENTAL OBSERVATIONS (NWS SHREVEPORT AREA)

CITY           SKY/WX    TMP DP  RH WIND       PRES   REMARKS
CLARKSVILLE      N/A     46  30  53 S2          N/A
TEXARKANA        N/A     36  32  87 CALM        N/A
LINDEN           N/A     39  34  81 CALM        N/A
CADDO LAKE       N/A     34  32  93 CALM        N/A
GILMER           N/A     39  34  81 CALM        N/A
HENDERSON        N/A     39  34  81 CALM        N/A
LUFKIN           N/A     41  39  93 MISG        N/A
N SABINE NF      N/A     37  36  93 MISG        N/A
S SABINE NF      N/A     37  36  93 CALM        N/A
$$

SUPPLEMENTAL OBSERVATIONS ARE A COLLECTION OF AUTOMATED INSTRUMENTS
THAT ARE MAINTAINED BY A VARIETY OF FEDERAL AND STATE AGENCIES.
CERTAIN ELEMENTS...SUCH AS HUMIDITY VALUES AND SUSTAINED WIND
SPEEDS...MAY BE APPROXIMATED.





USA.gov is the U.S. government's official web portal to all federal, state and local government web resources and services.